CW5229 Weather Reports


time (UTC)temp
C
wind
direction
speed
KPH
gust
KPH
rain 1hr
cm
rain 24hr
cm
rain mn
cm
humidity
%
barometer
mb
20260503213051 17 253 8.0 17.7 0.00 0.36 0.23 50 1007.1
20260503211549 16 111 6.4 22.5 0.00 0.36 0.23 50 1007.4
20260503210047 17 162 6.4 22.5 0.00 0.36 0.23 48 1007.7
20260503204524 17 135 4.8 19.3 0.00 0.36 0.23 50 1007.8
20260503203014 17 203 9.7 24.1 0.00 0.36 0.23 47 1007.8
20260503201510 17 241 9.7 25.7 0.00 0.36 0.23 49 1007.9
20260503200007 17 148 8.0 20.9 0.00 0.36 0.23 51 1008.0
20260503194503 16 241 8.0 20.9 0.00 0.36 0.23 55 1008.5
20260503193108 15 141 3.2 9.7 0.00 0.36 0.23 66 1008.7
20260503191557 14 169 3.2 9.7 0.03 0.36 0.23 70 1009.0
20260503190048 12 152 0.0 8.0 0.08 0.36 0.23 78 1009.4
20260503184544 10 159 0.0 4.8 0.15 0.36 0.23 84 1009.8
20260503183042 9 210 0.0 6.4 0.18 0.36 0.23 84 1010.2
20260503181553 8 155 0.0 4.8 0.18 0.33 0.20 83 1010.8
20260503180041 9 208 0.0 3.2 0.13 0.25 0.13 82 1012.2
20260503174528 10 147 0.0 14.5 0.10 0.20 0.08 80 1012.4
20260503173026 9 113 1.6 4.8 0.13 0.18 0.05 83 1012.6
20260503171524 9 219 1.6 6.4 0.15 0.15 0.03 82 1012.9
20260503150133 12 255 3.2 16.1 0.00 0.00 0.00 59 1013.4
20260503081526 7 238 1.6 9.7 0.00 0.00 0.00 58 1014.6
20260503071550 6 252 0.0 1.6 0.00 0.00 0.00 62 1014.8
20260503054537 6 257 0.0 1.6 0.00 0.00 0.00 66 1015.6
20260503053059 6 207 0.0 3.2 0.00 0.00 0.00 66 1015.7
20260503051557 6 246 0.0 3.2 0.00 0.00 0.00 66 1015.8
20260503050054 6 231 0.0 3.2 0.00 0.00 0.00 67 1015.8
20260503044609 6 247 0.0 1.6 0.00 0.00 0.00 67 1016.0
20260503043056 6 243 0.0 1.6 0.00 0.00 0.00 67 1016.0
20260503041608 6 254 0.0 1.6 0.00 0.00 0.00 67 1016.0
20260503040051 6 238 0.0 1.6 0.00 0.00 0.00 66 1016.1
20260503034545 6 233 0.0 1.6 0.00 0.00 0.00 66 1016.1
20260503033052 6 213 0.0 1.6 0.00 0.00 0.00 67 1016.1
20260503031542 6 233 0.0 1.6 0.00 0.00 0.00 67 1016.2
20260503030040 6 261 0.0 1.6 0.00 0.00 0.00 67 1016.3
20260503024539 6 249 0.0 0.0 0.00 0.00 0.00 68 1016.3
20260503023035 6 257 0.0 1.6 0.00 0.00 0.00 67 1016.2
20260503021531 6 257 0.0 0.0 0.00 0.00 0.00 65 1016.2
20260503020030 6 257 0.0 1.6 0.00 0.00 0.00 63 1016.2
20260503014517 7 257 0.0 0.0 0.00 0.00 0.00 62 1016.1
20260503013014 8 257 0.0 0.0 0.00 0.00 0.00 59 1015.9
20260503011523 8 257 0.0 0.0 0.00 0.00 0.00 58 1015.9
20260503010009 8 257 0.0 0.0 0.00 0.00 0.00 54 1015.9
20260503004502 10 257 0.0 0.0 0.00 0.00 0.00 50 1015.9
20260503003103 10 257 0.0 1.6 0.00 0.00 0.00 48 1016.0
20260503001601 11 240 0.0 4.8 0.00 0.00 0.00 46 1016.0
20260503000152 11 237 1.6 8.0 0.00 0.00 0.00 45 1016.0
20260502234553 12 168 3.2 17.7 0.00 0.00 0.00 43 1016.0
20260502233048 12 251 0.0 3.2 0.00 0.00 0.00 45 1016.1
20260502231546 12 287 1.6 4.8 0.00 0.00 0.00 43 1016.2
20260502230045 12 200 1.6 11.3 0.00 0.00 0.00 43 1016.4
20260502224514 12 317 0.0 9.7 0.00 0.00 0.00 43 1016.3
20260502223014 12 314 1.6 6.4 0.00 0.00 0.00 43 1016.4
20260502221513 12 330 0.0 8.0 0.00 0.00 0.00 40 1016.4
20260502220021 12 203 3.2 17.7 0.00 0.00 0.00 40 1016.3
20260502214510 13 266 0.0 6.4 0.00 0.00 0.00 39 1016.5